Regional Weather Roundup
Issued by NWS

Home | Current Version | Previous Version | Graphics & Text | Print | Product List | Glossary On
Versions: 1 2 3 4 5 6 7 8 9 10 11 12 13 14 15 16 17 18 19 20 21 22 23 24 25 26 27 28 29 30 31 32 33 34 35 36 37 38 39 40 41 42 43 44 45 46 47 48 49 50
000
ASUS43 KOAX 211210
RWRNE

WEATHER ROUNDUP FOR NEBRASKA
NATIONAL WEATHER SERVICE OMAHA NE
700 AM CDT MON AUG 21 2017

NOTES: SATELLITE DATA IS BEING USED TO AUGMENT CLOUD COVER ABOVE
       12000 FEET.
       "FAIR" INDICATES FEW OR NO CLOUDS BELOW 12,000 FEET WITH NO
       SIGNIFICANT WEATHER AND/OR OBSTRUCTIONS TO VISIBILITY.


NEZ001>004-019>022-054>056-211300-
NEBRASKA PANHANDLE

CITY           SKY/WX    TMP DP  RH WIND       PRES   REMARKS
SCOTTSBLUFF    FOG       64  63  96 CALM      30.01S VSB 1/4
6HR MIN TEMP:  63; 6HR MAX TEMP:  68;

ALLIANCE       CLOUDY    67  67 100 SW6       30.00R
6HR MIN TEMP:  62; 6HR MAX TEMP:  67;

CHADRON        CLEAR     64  62  93 SE7       29.97R
6HR MIN TEMP:  64; 6HR MAX TEMP:  72;

GORDON         CLOUDY    71  67  89 SW6       29.97F
6HR MIN TEMP:  60; 6HR MAX TEMP:  71;

SIDNEY         FOG       60  60 100 SW3       30.02F VSB 1/4
6HR MIN TEMP:  58; 6HR MAX TEMP:  65;

$$

NEZ057>060-069>072-079>082-211300-
SOUTHWEST NEBRASKA

CITY           SKY/WX    TMP DP  RH WIND       PRES   REMARKS
NORTH PLATTE   FOG       70  70 100 E7        29.95R VSB 1/4
6HR MIN TEMP:  70; 6HR MAX TEMP:  74;

IMPERIAL       CLEAR     60  58  92 S5        29.96S
6HR MIN TEMP:  60; 6HR MAX TEMP:  69;

LEXINGTON      CLEAR     67  65  94 CALM      29.96S
MCCOOK         PTCLDY    69  65  86 SW5       29.96R
6HR MIN TEMP:  68; 6HR MAX TEMP:  77;

OGALLALA       FOG       70  69  96 CALM      29.95F VSB 1/4
$$

NEZ005>010-023>029-035>040-094-211300-
NORTH CENTRAL NEBRASKA

CITY           SKY/WX    TMP DP  RH WIND       PRES   REMARKS
VALENTINE      FOG       66  63  90 E8        29.95S VSB 1/4
6HR MIN TEMP:  63; 6HR MAX TEMP:  67;

AINSWORTH      FOG       67  67 100 E10       29.96F VSB 1/2
BROKEN BOW     FOG       70  69  97 NE5       29.96R VSB 1/2
6HR MIN TEMP:  69; 6HR MAX TEMP:  73;

O`NEILL        CLOUDY    69  69 100 E7        29.97S FOG
ORD            FOG       70  68  93 E3        29.94R VSB 1/4
6HR MIN TEMP:  66; 6HR MAX TEMP:  72;

THEDFORD       FOG       70  69  98 E7        29.98R VSB 1/2
$$

NEZ041-046>049-061>064-073>077-083>087-211300-
SOUTH CENTRAL NEBRASKA

CITY           SKY/WX    TMP DP  RH WIND       PRES   REMARKS
GRAND ISLAND   CLOUDY    69  69 100 E5        29.96R
6HR MIN TEMP:  69; 6HR MAX TEMP:  73;

AURORA         PTCLDY    68  68  99 E6        29.96R
HASTINGS       PTCLDY    73  67  81 S8        29.96S
6HR MIN TEMP:  72; 6HR MAX TEMP:  78;

HEBRON         PTCLDY    75  67  74 SW6       29.96S
HOLDREGE       MOCLDY    69  64  84 S6        29.97R
KEARNEY        CLOUDY    66  64  93 CALM      29.96R
YORK           PTCLDY    72  70  94 E9        29.97S
$$

NEZ011>018-030>034-042>045-211300-
NORTHEAST NEBRASKA

CITY           SKY/WX    TMP DP  RH WIND       PRES   REMARKS
NORFOLK        PTCLDY    67  63  87 SE15      29.97R
6HR MIN TEMP:  66; 6HR MAX TEMP:  72;

ALBION         MOCLDY    69  68  98 SE8       29.96S FOG
BLAIR          CLOUDY    70  64  80 SE12      30.04R
COLUMBUS       CLOUDY    69  65  86 SE15G22   29.98S
FREMONT        PTCLDY    71  62  74 E23       30.00F
TEKAMAH        MOCLDY    70  62  76 SE17G23   30.00F
6HR MIN TEMP:  69; 6HR MAX TEMP:  75;

WAYNE          CLOUDY    69  66  90 SE10      29.98F
$$

NEZ050>053-065>068-078-088>093-211300-
SOUTHEAST NEBRASKA

CITY           SKY/WX    TMP DP  RH WIND       PRES   REMARKS
LINCOLN        CLOUDY    70  65  84 E14       30.01R
6HR MIN TEMP:  70; 6HR MAX TEMP:  81;

OMAHA EPPLEY   TSTM      69  64  84 SE16G28   30.07R
BEATRICE       CLOUDY    75  71  87 E9        30.00R
FALLS CITY     PTCLDY    73  71  93 E7        30.03R
6HR MIN TEMP:  73; 6HR MAX TEMP:  80;

NEBRASKA CITY  MOCLDY    69  69 100 E9G16     30.04S
PLATTSMOUTH    CLOUDY    68  66  92 E8        30.04R THUNDER
$$

NEZ044-045-051>053-067-211300-
OMAHA AREA

CITY           SKY/WX    TMP DP  RH WIND       PRES   REMARKS
OMAHA EPPLEY   TSTM      69  64  84 SE16G28   30.07R
BLAIR          CLOUDY    70  64  80 SE12      30.04R
FREMONT        PTCLDY    71  62  74 E23       30.00F
MILLARD        TSTM      69  67  92 SE12G18   30.05R
OFFUTT AFB     TSTM      68  64  88 NW5       30.08R FOG
PLATTSMOUTH    CLOUDY    68  66  92 E8        30.04R THUNDER
WAHOO          PTSUNNY   70  65  84 SE13      30.01R
$$




USA.gov is the U.S. government's official web portal to all federal, state and local government web resources and services.